Zurück zum Katalog

STARLINK-33736

AktivKommunikationVLEO
NORAD 63450·PAYLOAD·🇺🇸 United States

Gestartet Apr 4, 2025 von Vandenberg Space Force Base

Loading…

Nächste Überflüge (nächste 24 Stunden)

TLE

AktuellSource: CelesTrak SupGP

Epoche: Sep 14, 2026, 22:46 UTC

1 63450C 25069T   26257.94909722  .00000160  00000+0  47250-5 0  2570
2 63450  53.1591 335.6396 0001137  87.8598 146.4831 15.34390636    14

Verfolge STARLINK-33736 in Echtzeit mit AllMySat

Download on the App Store